EW4706 Weather Reports


time (UTC)temp
F
wind
direction
speed
knots
gust
knots
rain 1hr
in
rain 24hr
in
rain mn
in
humidity
%
barometer
mb
20260504050004 49 236 0.0 4.3 0.00 0.00 0.00 49 1016.5
20260504044507 49 243 1.7 5.2 0.00 0.00 0.00 48 1016.4
20260504043100 49 217 1.7 5.2 0.00 0.00 0.00 49 1016.4
20260504041557 49 153 0.0 3.5 0.00 0.00 0.00 50 1016.2
20260504040106 48 265 0.9 4.3 0.00 0.00 0.00 51 1016.0
20260504034615 48 280 0.0 1.7 0.00 0.00 0.00 52 1016.0
20260504033054 48 162 0.0 1.7 0.00 0.00 0.00 51 1016.0
20260504031551 48 142 0.9 1.7 0.00 0.00 0.00 51 1016.0
20260504030118 48 281 0.0 1.7 0.00 0.00 0.00 49 1015.9
20260504024555 48 146 0.0 0.9 0.00 0.00 0.00 50 1016.0
20260504023050 48 158 0.0 1.7 0.00 0.00 0.00 50 1016.1
20260504021552 48 163 0.9 1.7 0.00 0.00 0.00 50 1016.0
20260504020051 49 160 0.9 1.7 0.00 0.00 0.00 49 1016.0
20260504014554 49 160 0.9 1.7 0.00 0.00 0.00 46 1015.9
20260504013054 49 170 0.9 2.6 0.00 0.00 0.00 45 1015.8
20260504011547 49 162 0.9 1.7 0.00 0.00 0.00 46 1015.7
20260504010046 50 158 0.9 1.7 0.00 0.00 0.00 47 1015.5
20260504004546 52 174 0.0 3.5 0.00 0.00 0.00 42 1015.3
20260504003045 53 289 0.0 3.5 0.00 0.00 0.00 38 1015.1
20260504001559 53 291 0.0 2.6 0.00 0.00 0.00 38 1015.0
20260504000044 54 330 0.0 2.6 0.00 0.00 0.00 38 1014.8
20260503234544 55 208 0.9 4.3 0.00 0.00 0.00 36 1014.6
20260503233043 55 312 2.6 6.1 0.00 0.00 0.00 34 1014.5
20260503231546 56 26 1.7 5.2 0.00 0.00 0.00 34 1014.4
20260503230043 56 298 1.7 10.4 0.00 0.00 0.00 34 1014.2
20260503224542 56 9 1.7 9.6 0.00 0.00 0.00 34 1014.2
20260503223041 56 9 1.7 6.1 0.00 0.00 0.00 34 1014.1
20260503221544 56 295 1.7 8.7 0.00 0.00 0.00 33 1014.1
20260503220040 56 8 4.3 13.0 0.00 0.00 0.00 32 1014.1
20260503214540 56 314 4.3 13.0 0.00 0.00 0.00 32 1014.0
20260503213043 56 326 4.3 15.6 0.00 0.00 0.00 32 1014.0
20260503211538 56 49 2.6 17.4 0.00 0.00 0.00 32 1013.8
20260503210036 56 322 6.1 14.8 0.00 0.00 0.00 31 1013.9
20260503204536 56 309 3.5 9.6 0.00 0.00 0.00 32 1013.9
20260503203034 55 244 2.6 16.5 0.00 0.00 0.00 31 1014.0
20260503201533 55 333 3.5 13.9 0.00 0.00 0.00 33 1014.2
20260503200033 55 20 7.0 13.9 0.00 0.00 0.00 33 1014.2
20260503194533 55 360 2.6 11.3 0.00 0.00 0.00 34 1014.4
20260503193031 55 302 3.5 10.4 0.00 0.00 0.00 34 1014.4
20260503191528 54 100 2.6 11.3 0.00 0.00 0.00 35 1014.5
20260503190041 54 342 2.6 8.7 0.00 0.00 0.00 38 1014.6
20260503184525 52 350 5.2 14.8 0.00 0.00 0.00 36 1014.8
20260503183025 52 317 5.2 13.0 0.00 0.00 0.00 36 1015.0
20260503181524 52 302 2.6 10.4 0.00 0.00 0.00 36 1014.9
20260503180035 52 336 5.2 14.8 0.00 0.00 0.00 36 1015.0
20260503174522 51 325 1.7 14.8 0.00 0.00 0.00 38 1015.0
20260503173019 49 286 3.5 12.2 0.00 0.00 0.00 41 1015.3
20260503171531 49 308 4.3 11.3 0.00 0.00 0.00 41 1015.3
20260503140120 45 343 4.3 14.8 0.00 0.00 0.00 52 1015.9
20260503081536 41 10 3.5 10.4 0.00 0.04 0.00 61 1014.1
20260503071517 42 22 3.5 7.8 0.00 0.04 0.00 59 1013.9
20260503054558 44 336 4.3 9.6 0.00 0.04 0.00 57 1014.2
20260503053057 44 1 3.5 8.7 0.00 0.04 0.00 55 1014.5